Simultaneous Nadir Overpasses (SNOs) Predictions

Prediction of SNOs between METOP-B and NOAA-19 Satellite Orbit:

Table of predicted SNOs for the next 14.0 days since TLE Epoch: 2/15/2025
Index Date (METOP-B) Time (METOP-B) Lat,Lon (METOP-B) SZA (METOP-B ) Date (NOAA-19) Time (NOAA-19) Lat,Lon (NOAA-19) SZA (NOAA-19 ) Distance(km) Time Diff (sec)
1 02/15/2025 04:07:33 80.53,-168.15 99.24 02/15/2025 04:07:24 80.52,-168.02 99.25 2.65 9
2 02/15/2025 04:58:13 -80.51, -0.55 80.74 02/15/2025 04:58:26 -80.51, -0.52 80.73 0.77 13
3 02/15/2025 05:48:53 80.48, 167.11 99.29 02/15/2025 05:49:19 80.49, 167.12 99.31 0.20 26
4 02/15/2025 06:39:33 -80.46, -25.29 80.69 02/15/2025 06:40:21 -80.47, -25.38 80.67 1.85 48
5 02/15/2025 07:30:14 80.46, 142.05 99.31 02/15/2025 07:31:15 80.47, 141.92 99.33 2.45 61
6 02/27/2025 08:23:30 80.63, 126.37 94.75 02/27/2025 08:22:20 80.64, 126.28 94.70 1.79 70
7 02/27/2025 09:14:11 -80.63, -66.31 85.27 02/27/2025 09:13:20 -80.63, -66.25 85.29 1.45 51
8 02/27/2025 10:04:51 80.61, 101.31 94.76 02/27/2025 10:04:15 80.61, 101.42 94.75 2.22 36
9 02/27/2025 10:55:31 -80.59, -91.05 85.22 02/27/2025 10:55:15 -80.60, -91.11 85.24 1.26 16
10 02/27/2025 11:46:12 80.59, 76.24 94.77 02/27/2025 11:46:11 80.59, 76.22 94.76 0.37 1
11 02/27/2025 12:36:52 -80.57,-116.12 85.21 02/27/2025 12:37:10 -80.56,-115.98 85.18 2.72 18
12 02/27/2025 13:27:33 80.57, 51.17 94.78 02/27/2025 13:28:07 80.58, 51.01 94.78 2.93 34
13 02/27/2025 14:18:12 -80.55,-141.19 85.20 02/27/2025 14:19:05 -80.55,-141.19 85.17 0.07 53



Historial Predications of SNOs between METOP-B and NOAA-19
